User: anonymous   Login
Location: Caltech
(34.1382°N, 118.1253°W)
Time: 13:35:21
(UTC-07:00)
Language:

Cosmos 2322 - Orbit

View from above orbital plane
View from above orbital plane
View from above satellite
View from above satellite

Ground track
Ground track

The orbit data is extracted from the following two-line orbital elements,

1 23704U 95058A   18114.22373231 -.00000065  00000-0 -91740-5 0  9990
2 23704  70.9839 111.8579 0010892 331.5030  28.5495 14.13400669159788
Epoch (UTC): 24 April 2018 05:22:10
Eccentricity: 0.0010892
inclination: 70.9839°
perigee height: 840 km
apogee height: 855 km
right ascension of ascending node: 111.8579°
argument of perigee: 331.5030°
revolutions per day: 14.13400669
mean anomaly at epoch: 28.5495°
orbit number at epoch: 15978

The dashed part of the orbit path shows where the satellite is in the earth's shadow,  

DLR